User: anonymous   Login
Location: Unspecified
(0.0000°N, 0.0000°E)
Time: 08:52:55
(UTC+00:00)
Language:

SAMSAT 218D - Orbit

View from above orbital plane
View from above orbital plane
View from above satellite
View from above satellite

Ground track
Ground track

The orbit data is extracted from the following two-line orbital elements,

1 41466U 16026C   21340.87255127  .00069490  00000-0  61134-3 0  9999
2 41466  97.1444 250.5499 0005839  42.9229  21.4218 15.68543202315721
Epoch (UTC): 06 December 2021 20:56:28
Eccentricity: 0.0005839
inclination: 97.1444°
perigee height: 359 km
apogee height: 367 km
right ascension of ascending node: 250.5499°
argument of perigee: 42.9229°
revolutions per day: 15.68543202
mean anomaly at epoch: 21.4218°
orbit number at epoch: 31572

The dashed part of the orbit path shows where the satellite is in the earth's shadow,  

DLR